Weather Roundup
Issued by NWS Chicago, IL

Home | Current Version | Previous Version | Graphics & Text | Print | Product List | Glossary On
Versions: 1 2 3 4 5 6 7 8 9 10 11 12 13 14 15 16 17 18 19 20 21 22 23 24 25 26 27 28 29 30 31 32 33 34 35 36 37 38 39 40 41 42 43 44 45 46 47 48 49 50
000
NZUS59 KLOT 280409
HRRLOT

CHICAGO AREA WEATHER ROUNDUP
NATIONAL WEATHER SERVICE CHICAGO/ROMEOVILLE IL
1100 PM CDT THU JUL 27 2017

NOTE: "FAIR" INDICATES FEW OR NO CLOUDS BELOW 12,000 FEET WITH NO
SIGNIFICANT WEATHER AND/OR OBSTRUCTIONS TO VISIBILITY.

* THESE STATIONS ARE NOT UNDER NWS QUALITY CONTROL. THEY ALSO MAY NOT
  REPORT WEATHER SUCH AS PRECIPITATION OR FOG.

ILZ005-006-012>014-019>023-280500-
NORTHEAST ILLINOIS

CITY           SKY/WX    TMP DP  RH WIND       PRES   REMARKS
OHARE          PTCLDY    70  59  68 N10       29.94S
MIDWAY         PTCLDY    72  62  71 N9        29.93S
AURORA         CLEAR     63  56  78 N6        29.96R
LANSING*       CLEAR     69  63  79 N3        29.93S
JOLIET*        CLEAR     70  60  70 N5        29.94S
WAUKEGAN       CLEAR     69  61  75 N8        29.95S
DUPAGE AIRPORT CLEAR     62  57  83 N7        29.95S
WHEELING       CLEAR     69  61  75 N6        29.96S
MORRIS*        CLEAR     63  60  89 CALM      29.93S
LEWIS AIRPORT* CLEAR     67  57  71 NE9       29.93F
$$

WIZ051-052-058>065-066-070>072-280500-
SOUTHEAST WISCONSIN

CITY           SKY/WX    TMP DP  RH WIND       PRES   REMARKS
MILWAUKEE      PTCLDY    70  61  73 N13       29.97S
KENOSHA*       CLEAR     68  59  73 NE7       29.97S
RACINE*        CLEAR     68  63  84 N10       29.98S
WAUKESHA       CLEAR     63  54  72 N5        30.01R
WEST BEND      PTCLDY    64  59  82 NE5       30.01R
$$

INZ001>003-010>013-019-020-280500-
NORTHWEST INDIANA

CITY           SKY/WX    TMP DP  RH WIND       PRES   REMARKS
GARY*          MOCLDY    73  66  80 NE6       29.92F
MICHIGAN CITY* NOT AVBL
RENSSELAER*    NOT AVBL
VALPARAISO     MOCLDY    72  68  87 N7        29.91F
$$

LMZ740>746-280500-
SOUTHERN LAKE MICHIGAN

STATION/POSITION TIME  SKY/WX   TEMP WIND        PRES    VSBY
                                AIR  DIR/SP/G
                 (UTC)          (F)  (DEG/KT/KT) (MB)    (MI)
HARRISON CRIB    0340            72  350/ 16/ 17   N/A
BURNHAM HARBOR   0400            71                N/A
CALUMET HARBOR   0342            71  340/ 10/ 14 1012.7F
BURNS HARBOR     0340            74   30/ 11/ 15 1013.5F
MICHIGAN CITY    0340            73   30/ 12/ 14   N/A
$$

ABBREVIATIONS USED IN REMARKS
   TC - TEMPERATURE IN CELSIUS
  WCI - WIND CHILL INDEX
   HX - HEAT INDEX
  VSB - VISIBILITY
$$




USA.gov is the U.S. government's official web portal to all federal, state and local government web resources and services.